Location: ???? ???? ?????
(31.2680°N, 31.7283°E)
Time: 19:56:42
(UTC+00:00)

CZ-2C R/B - Pass Details

Date: 13 July 2020
Orbit: 784 x 871 km, 98.3° (Epoch: 05 August)

Event Time Altitude Azimuth Distance (km) Brightness Sun altitude
Rises 18:21:07 0° 2° (N) 3,337 6.3 -15.7°
Reaches altitude 10° 18:23:37 10° 354° (N) 2,390 5.7 -16.1°
Maximum altitude 18:28:26 38° 288° (WNW) 1,199 4.1 -16.9°
Drops below altitude 10° 18:33:11 10° 221° (SW) 2,342 5.0 -17.7°
Sets 18:35:37 0° 214° (SSW) 3,262 5.7 -18.1°
